| time (UTC) | temp C | wind direction | speed KPH | gust KPH | rain 1hr cm | rain 24hr cm | rain mn cm | humidity % | barometer mb |
| 20260505100053 | 16 | 133 | 4.8 | 14.5 | 0.00 | 0.03 | 0.03 | 87 | 1018.3 |
| 20260505093053 | 16 | 135 | 6.4 | 12.9 | 0.00 | 0.03 | 0.03 | 85 | 1018.1 |
| 20260505090053 | 16 | 147 | 4.8 | 11.3 | 0.00 | 0.03 | 0.03 | 83 | 1018.0 |
| 20260505083053 | 17 | 160 | 8.0 | 17.7 | 0.00 | 0.03 | 0.03 | 83 | 1017.4 |
| 20260505080053 | 17 | 163 | 6.4 | 16.1 | 0.00 | 0.03 | 0.03 | 81 | 1017.3 |
| 20260505073053 | 18 | 171 | 3.2 | 8.0 | 0.00 | 0.03 | 0.03 | 77 | 1016.9 |
| 20260505070053 | 20 | 178 | 3.2 | 9.7 | 0.00 | 0.03 | 0.03 | 70 | 1016.8 |
| 20260505063053 | 20 | 173 | 1.6 | 9.7 | 0.00 | 0.03 | 0.03 | 68 | 1016.3 |
| 20260505060053 | 20 | 215 | 3.2 | 11.3 | 0.00 | 0.03 | 0.03 | 66 | 1016.3 |
| 20260505053053 | 21 | 322 | 1.6 | 8.0 | 0.00 | 0.03 | 0.03 | 64 | 1015.9 |
| 20260505040053 | 21 | 289 | 1.6 | 9.7 | 0.00 | 0.03 | 0.03 | 64 | 1015.6 |
| 20260505033053 | 21 | 296 | 1.6 | 6.4 | 0.00 | 0.03 | 0.03 | 64 | 1015.8 |
| 20260505030053 | 22 | 136 | 3.2 | 14.5 | 0.00 | 0.03 | 0.03 | 62 | 1016.0 |
| 20260505023053 | 21 | 298 | 3.2 | 11.3 | 0.00 | 0.03 | 0.03 | 65 | 1016.3 |
| 20260505020053 | 21 | 197 | 4.8 | 12.9 | 0.00 | 0.03 | 0.03 | 68 | 1016.7 |
| 20260505013053 | 21 | 199 | 3.2 | 9.7 | 0.00 | 0.03 | 0.03 | 68 | 1017.1 |
| 20260505010053 | 21 | 216 | 3.2 | 11.3 | 0.00 | 0.03 | 0.03 | 68 | 1017.5 |
| 20260505003054 | 20 | 164 | 1.6 | 8.0 | 0.00 | 0.03 | 0.03 | 74 | 1017.8 |
| 20260505000053 | 19 | 264 | 6.4 | 14.5 | 0.00 | 0.03 | 0.03 | 80 | 1018.1 |
| 20260504233053 | 16 | 274 | 3.2 | 11.3 | 0.00 | 0.03 | 0.03 | 98 | 1018.4 |
| 20260504230053 | 15 | 211 | 0.0 | 6.4 | 0.00 | 0.03 | 0.03 | 99 | 1018.5 |
| 20260504223054 | 15 | 109 | 0.0 | 1.6 | 0.00 | 0.03 | 0.03 | 99 | 1018.5 |
| 20260504220053 | 15 | 0 | 0.0 | 0.0 | 0.00 | 0.03 | 0.03 | 100 | 1018.3 |
| 20260504213053 | 13 | 0 | 0.0 | 0.0 | 0.00 | 0.03 | 0.03 | 99 | 1018.0 |
| 20260504210054 | 12 | 0 | 0.0 | 0.0 | 0.00 | 0.03 | 0.03 | 99 | 1017.6 |
| 20260504203053 | 12 | 0 | 0.0 | 0.0 | 0.00 | 0.05 | 0.03 | 98 | 1017.3 |
| 20260504200053 | 12 | 0 | 0.0 | 0.0 | 0.00 | 0.05 | 0.03 | 98 | 1017.4 |
| 20260504193053 | 12 | 0 | 0.0 | 0.0 | 0.03 | 0.05 | 0.03 | 98 | 1016.9 |
| 20260504190054 | 13 | 0 | 0.0 | 0.0 | 0.03 | 0.05 | 0.03 | 99 | 1016.6 |
| 20260504183053 | 13 | 0 | 0.0 | 0.0 | 0.00 | 0.03 | 0.00 | 98 | 1016.6 |
| 20260504180053 | 13 | 0 | 0.0 | 0.0 | 0.00 | 0.03 | 0.00 | 98 | 1016.6 |
| 20260504173053 | 13 | 0 | 0.0 | 0.0 | 0.00 | 0.03 | 0.00 | 98 | 1016.4 |